Regional Weather Roundup
Issued by NWS

Home | Current Version | Previous Version | Text Only | Print | Product List | Glossary Off
Versions: 1 2 3 4 5 6 7 8 9 10 11 12 13 14 15 16 17 18 19 20 21 22 23 24 25 26 27 28 29 30 31 32 33 34 35 36 37 38 39 40 41 42 43 44 45 46 47 48 49 50

000
ASUS45 KCYS 102010
RWRWY

WYOMING REGIONAL WEATHER ROUNDUP
NATIONAL WEATHER SERVICE CHEYENNE WY
200 PM MDT THU JUL 10 2014

NOTE:  "FAIR" INDICATES FEW OR NO CLOUDS BELOW 12,000 FEET
WITH NO SIGNIFICANT WEATHER AND/OR OBSTRUCTIONS TO VISIBILITY.

WYZ001-102100-
YELLOWSTONE NATIONAL PARK

CITY           SKY/WX    TMP DP  RH WIND       PRES   REMARKS
LK YELLOWSTONE   N/A     64  49  57 VRB5      30.23F
W YELLOWSTONE  NOT AVBL

$$
WYZ002>013-054>058-071-098>099-102100-
NORTHERN WYOMING

CITY           SKY/WX    TMP DP  RH WIND       PRES   REMARKS
JACKSON        CLOUDY    72  54  53 CALM      30.15F
CODY           NOT AVBL
GREYBULL       MOSUNNY   85  48  27 CALM      29.92F
WORLAND        PTSUNNY   84  49  29 N7        29.95F
SHERIDAN       CLOUDY    84  47  27 NW7       29.93F
BUFFALO        PTSUNNY   77  54  44 N10       30.01F
GILLETTE       MOSUNNY   84  50  30 NW8       29.95F
HULETT         FAIR      81  59  47 MISG      29.95
NEWCASTLE      FAIR      84  52  32 NW10      29.93

$$
WYZ014>020-022>026-101>103-102100-
CENTRAL WYOMING

CITY           SKY/WX    TMP DP  RH WIND       PRES   REMARKS
BIG PINEY      CLOUDY    76  44  32 N14       30.19F
PINEDALE       CLOUDY    72  43  35 NW16G22   30.21R
DUBOIS         CLOUDY    66  46  48 W26G36    30.18R HAZE
LANDER         CLOUDY    83  47  28 N9        30.01F
RIVERTON       CLOUDY    83  46  27 N13       30.03F
CASPER         PTSUNNY   83  47  28 N14       29.99F
DOUGLAS        MOSUNNY   91  50  24 NW14      29.97F

$$
WYZ021-027>030-104>119-102100-
SOUTHERN WYOMING

CITY           SKY/WX    TMP DP  RH WIND       PRES   REMARKS
EVANSTON       PTSUNNY   74  51  44 W14       30.19F
KEMMERER       MOCLDY    73  46  38 W12G23    30.20F
FORT BRIDGER   MOCLDY    78  49  36 W14G20    30.20F
ROCK SPRINGS   PTSUNNY   81  45  28 W16G26    30.13F
DIXON          MOCLDY    85  44  23 S8        30.15F
RAWLINS        MOSUNNY   84  41  21 SW18      30.12F
SARATOGA       FAIR      82  43  24 W12G25    30.16F
LARAMIE        LGT RAIN  75  47  36 W7        30.17F
CHEYENNE       PTSUNNY   85  44  23 S21       30.08S
TORRINGTON     SUNNY     94  52  24 NW7       29.89F HX  91

$$



USA.gov is the U.S. government's official web portal to all federal, state and local government web resources and services.